Jefferson, NC

4:39 PM EDT on August 30, 2016 (GMT -0400)
Ashe County

Weather History for KGEV - February, 2013

Change the Weather History Date:

Monday, February 18, 2013

  Actual Average Record
Temperature  
Mean Temperature 35 °F -  
Max Temperature 46 °F 45 °F 64 °F (1970)
Min Temperature 24 °F 24 °F 1 °F (1973)
Degree Days  
Heating Degree Days 30    
Moisture  
Dew Point 11 °F    
Average Humidity 39    
Maximum Humidity 61    
Minimum Humidity 28    
Precipitation  
Precipitation 0.00 in - - ()
Sea Level Pressure  
Sea Level Pressure 30.17 in    
Wind  
Wind Speed 9 mph (SSW)    
Max Wind Speed 22 mph    
Max Gust Speed 32 mph    
Visibility 10 miles    
Events      
Averages and records for this station are not official NWS values.
T = Trace of Precipitation, MM = Missing Value Source: NWS Daily Summary

Daily Weather History Graph

Daily Weather History Graph

Search for Another Location

Airport or City:

Trip Planner

Search our weather history database for the weather conditions in past years. The results will help you decide how hot, cold, wet, or windy it might be!

Date:

Astronomy

Feb. 18, 2013 Rise Set
Actual Time 7:09 AM EST 6:09 PM EST
Civil Twilight 6:43 AM EST 6:36 PM EST
Nautical Twilight 6:13 AM EST 7:06 PM EST
Astronomical Twilight 5:43 AM EST 7:36 PM EST
Moon 11:59 AM EST (2/18) 1:43 AM EST (2/18)
Length of Visible Light 11h 52m
Length of Day
11h 00m
First Quarter, 58% of the Moon is Illuminated
Feb 18
First Quarter
Feb 25
Full
Mar 4
Last Quarter
Mar 11
New
Mar 19
First Quarter

Hourly Weather History & Observations

Time (EST) Temp. Windchill Dew Point Humidity Pressure Visibility Wind Dir Wind Speed Gust Speed Precip Events Conditions
12:15 AM 25.3 °F 14.1 °F -0.4 °F 33% 30.10 in 10.0 mi West 12.7 mph 18.4 mph N/A   Clear
12:35 AM 25.3 °F 16.7 °F 0.1 °F 34% 30.11 in 10.0 mi West 8.1 mph - N/A   Clear
12:55 AM 25.2 °F 16.5 °F 0.9 °F 35% 30.11 in 10.0 mi WSW 8.1 mph 17.3 mph N/A   Clear
1:15 AM 24.8 °F 15.3 °F 1.2 °F 36% 30.12 in 10.0 mi West 9.2 mph 16.1 mph N/A   Clear
1:35 AM 25.2 °F 13.3 °F 1.8 °F 37% 30.12 in 10.0 mi WNW 13.8 mph 19.6 mph N/A   Clear
1:55 AM 25.3 °F 13.1 °F 1.8 °F 36% 30.14 in 10.0 mi West 15.0 mph - N/A   Clear
2:15 AM 25.2 °F 16.5 °F 2.5 °F 38% 30.14 in 10.0 mi West 8.1 mph - N/A   Clear
2:35 AM 25.5 °F 16.2 °F 3.0 °F 38% 30.14 in 10.0 mi West 9.2 mph - N/A   Clear
2:55 AM 25.7 °F 15.1 °F 2.5 °F 37% 30.14 in 10.0 mi West 11.5 mph - N/A   Clear
3:15 AM 25.9 °F 14.3 °F 2.8 °F 37% 30.14 in 10.0 mi West 13.8 mph 19.6 mph N/A   Clear
3:35 AM 25.9 °F 13.8 °F 3.2 °F 38% 30.14 in 10.0 mi West 15.0 mph 21.9 mph N/A   Clear
3:55 AM 26.2 °F 14.2 °F 3.2 °F 37% 30.15 in 10.0 mi West 15.0 mph - N/A   Clear
4:15 AM 26.4 °F 13.2 °F 3.4 °F 37% 30.15 in 10.0 mi West 18.4 mph - N/A   Clear
4:35 AM 27.1 °F 13.4 °F 4.5 °F 38% 30.14 in 10.0 mi West 20.7 mph - N/A   Clear
4:55 AM 27.5 °F 13.5 °F 5.9 °F 40% 30.16 in 10.0 mi West 21.9 mph 32.2 mph N/A   Clear
5:15 AM 28.0 °F 14.3 °F 6.1 °F 39% 30.16 in 10.0 mi West 21.9 mph 32.2 mph N/A   Clear
5:55 AM 28.4 °F 14.7 °F 7.3 °F 41% 30.18 in 10.0 mi West 21.9 mph 25.3 mph N/A   Clear
6:15 AM 28.4 °F 16.6 °F 7.3 °F 41% 30.18 in 10.0 mi West 16.1 mph - N/A   Clear
6:35 AM 28.4 °F 17.5 °F 7.7 °F 42% 30.20 in 10.0 mi West 13.8 mph - N/A   Clear
6:55 AM 29.1 °F 20.0 °F 8.2 °F 42% 30.20 in 10.0 mi West 10.4 mph 17.3 mph N/A   Clear
7:15 AM 28.9 °F 21.9 °F 8.6 °F 42% 30.20 in 10.0 mi West 6.9 mph - N/A   Clear
7:35 AM 27.5 °F 21.1 °F 7.9 °F 44% 30.20 in 10.0 mi West 5.8 mph - N/A   Clear
7:55 AM 27.0 °F - 8.1 °F 45% 30.21 in 10.0 mi Calm Calm - N/A   Clear
8:15 AM 27.7 °F - 8.6 °F 45% 30.22 in 10.0 mi Calm Calm - N/A   Clear
8:35 AM 27.9 °F - 8.2 °F 44% 30.22 in 10.0 mi Calm Calm - N/A   Clear
9:15 AM 30.2 °F - 9.5 °F 42% 30.23 in 10.0 mi Calm Calm - N/A   Clear
9:35 AM 31.6 °F 28.3 °F 9.5 °F 40% 30.23 in 10.0 mi SE 3.5 mph - N/A   Clear
10:15 AM 34.5 °F 30.4 °F 11.5 °F 39% 30.23 in 10.0 mi SE 4.6 mph - N/A   Clear
10:35 AM 35.6 °F 32.8 °F 11.1 °F 36% 30.23 in 10.0 mi SSE 3.5 mph - N/A   Clear
10:55 AM 37.4 °F 34.9 °F 11.7 °F 35% 30.24 in 10.0 mi SE 3.5 mph - N/A   Clear
11:15 AM 38.5 °F 35.0 °F 12.0 °F 34% 30.24 in 10.0 mi ESE 4.6 mph - N/A   Clear
11:35 AM 40.1 °F - 12.0 °F 32% 30.24 in 10.0 mi Calm Calm - N/A   Clear
12:15 PM 42.3 °F 40.5 °F 12.4 °F 30% 30.22 in 10.0 mi SE 3.5 mph - N/A   Clear
12:35 PM 41.9 °F 36.9 °F 12.9 °F 31% 30.21 in 10.0 mi ESE 8.1 mph - N/A   Clear
12:55 PM 43.3 °F 40.7 °F 13.3 °F 30% 30.20 in 10.0 mi SSE 4.6 mph - N/A   Clear
1:15 PM 44.1 °F 42.5 °F 14.0 °F 30% 30.20 in 10.0 mi South 3.5 mph - N/A   Clear
1:35 PM 44.6 °F 41.4 °F 13.5 °F 28% 30.19 in 10.0 mi SSE 5.8 mph - N/A   Clear
1:55 PM 43.7 °F 37.7 °F 13.5 °F 29% 30.18 in 10.0 mi SE 11.5 mph 19.6 mph N/A   Clear
2:15 PM 44.2 °F 38.8 °F 14.5 °F 30% 30.18 in 10.0 mi SE 10.4 mph - N/A   Clear
2:35 PM 44.4 °F 39.5 °F 14.7 °F 30% 30.17 in 10.0 mi SE 9.2 mph - N/A   Clear
2:55 PM 45.9 °F 43.6 °F 16.0 °F 30% 30.17 in 10.0 mi SE 4.6 mph - N/A   Clear
3:15 PM 45.7 °F 41.5 °F 16.0 °F 30% 30.16 in 10.0 mi SSE 8.1 mph - N/A   Clear
3:35 PM 46.2 °F 42.7 °F 16.5 °F 31% 30.16 in 10.0 mi SSE 6.9 mph - N/A   Clear
3:55 PM 45.5 °F 41.8 °F 16.0 °F 31% 30.15 in 10.0 mi SSE 6.9 mph - N/A   Clear
4:15 PM 44.8 °F 41.6 °F 16.2 °F 32% 30.16 in 10.0 mi South 5.8 mph - N/A   Clear
4:35 PM 43.5 °F 40.1 °F 17.1 °F 35% 30.16 in 10.0 mi South 5.8 mph - N/A   Clear
4:55 PM 42.3 °F 39.4 °F 17.2 °F 37% 30.16 in 10.0 mi SSE 4.6 mph - N/A   Clear
5:15 PM 43.0 °F 39.5 °F 17.6 °F 36% 30.17 in 10.0 mi SSE 5.8 mph - N/A   Clear
5:35 PM 41.9 °F 38.2 °F 16.9 °F 36% 30.16 in 10.0 mi SSE 5.8 mph - N/A   Clear
5:55 PM 40.6 °F - 17.1 °F 39% 30.16 in 10.0 mi Calm Calm - N/A   Clear
6:15 PM 39.6 °F 36.3 °F 17.1 °F 40% 30.16 in 10.0 mi SSE 4.6 mph - N/A   Clear
6:35 PM 38.3 °F 34.8 °F 17.6 °F 43% 30.16 in 10.0 mi SSE 4.6 mph - N/A   Clear
6:55 PM 37.4 °F - 18.0 °F 45% 30.16 in 10.0 mi Calm Calm - N/A   Clear
7:15 PM 36.5 °F - 18.3 °F 48% 30.16 in 10.0 mi Calm Calm - N/A   Clear
7:35 PM 36.5 °F - 18.5 °F 48% 30.16 in 10.0 mi Calm Calm - N/A   Clear
7:55 PM 36.0 °F 33.3 °F 18.7 °F 50% 30.15 in 10.0 mi SSE 3.5 mph - N/A   Clear
8:35 PM 34.9 °F 30.8 °F 19.4 °F 53% 30.13 in 10.0 mi SSE 4.6 mph - N/A   Clear
8:55 PM 34.9 °F 29.9 °F 19.4 °F 53% 30.12 in 10.0 mi SSE 5.8 mph - N/A   Clear
9:15 PM 34.7 °F 30.6 °F 19.9 °F 55% 30.12 in 10.0 mi SSE 4.6 mph - N/A   Clear
9:35 PM 35.2 °F 32.4 °F 19.8 °F 53% 30.13 in 10.0 mi SSE 3.5 mph - N/A   Clear
10:15 PM 32.5 °F 28.1 °F 20.3 °F 61% 30.11 in 10.0 mi SSE 4.6 mph - N/A   Clear
10:55 PM 33.8 °F 27.0 °F 20.7 °F 59% 30.08 in 10.0 mi South 8.1 mph - N/A   Clear
11:35 PM 33.8 °F 27.0 °F 20.5 °F 58% 30.07 in 10.0 mi South 8.1 mph - N/A   Clear